Location: Izdebno
(52.6670°N, 16.2170°E)
Time: 15:43:58
(UTC+01:00)

Vanguard 1 - Visible Passes

Search period start: 29 January 2023 00:00
Search period end: 08 February 2023 00:00
Orbit: 649 x 3831 km, 34.2° (Epoch: 28 January)

Date Brightness Start Highest point End Pass type
(mag) Time Alt. Az. Time Alt. Az. Time Alt. Az.
29 Jan 13.0 06:10:36 10° SSW 06:19:08 28° SSE 06:32:21 10° ESE visible
30 Jan 13.1 04:17:03 10° SSE 04:20:26 12° SE 04:24:26 10° ESE visible
30 Jan 12.9 06:30:18 10° SW 06:39:11 31° SSE 06:53:16 10° ESE visible
31 Jan 12.9 04:35:00 10° S 04:40:07 16° SE 04:46:53 10° ESE visible
31 Jan 12.9 06:50:12 10° SW 06:59:20 33° SSE 07:14:02 10° ESE visible
01 Feb 12.7 04:53:55 10° S 04:59:55 20° SE 05:08:26 10° ESE visible
02 Feb 12.6 05:13:18 10° SSW 05:19:50 23° SSE 05:29:34 10° ESE visible
03 Feb 12.5 05:32:57 10° SSW 05:39:51 26° SSE 05:50:29 10° ESE visible
04 Feb 12.7 03:38:58 10° SSE 03:41:18 11° SE 03:43:58 10° ESE visible
04 Feb 12.5 05:52:49 10° SW 05:59:58 28° SSE 06:11:13 10° ESE visible
05 Feb 12.4 03:57:54 11° S 04:01:07 15° SE 04:06:07 10° ESE visible
05 Feb 12.5 06:12:51 10° SW 06:20:09 29° S 06:31:48 10° ESE visible
06 Feb 12.3 04:17:29 13° S 04:21:02 18° SSE 04:27:24 10° ESE visible
06 Feb 12.5 06:33:00 10° SW 06:40:25 29° S 06:52:12 10° SE visible
07 Feb 12.2 04:37:04 14° SSW 04:41:03 20° SSE 04:48:19 10° ESE visible
